Location: Jalan Sepang
(2.8072°N, 101.8021°E)
Time: 06:03:58
(UTC+00:00)

SWAS - Pass Details

Date: 15 May 2026
Orbit: 531 x 544 km, 69.9° (Epoch: 7 June)

Event Time Altitude Azimuth Distance (km) Brightness Sun altitude
Exits shadow 22:32:48 - 205° (SSW) 2,616 7.4 -7.7°
Reaches altitude 10° 22:34:52 10° 209° (SSW) 1,780 6.5 -7.2°
Maximum altitude 22:38:45 53° 287° (WNW) 659 4.4 -6.3°
Drops below altitude 10° 22:42:37 10° 4° (N) 1,781 7.3 -5.3°
Sets 22:44:50 0° 9° (N) 2,672 8.2 -4.8°
